Location: Doverdale
(52.2833°N, 2.2000°W)
Time: 11:51:24
(UTC+00:00)

CZ-2C R/B - Pass Details

Date: 29 October 2020
Orbit: 703 x 909 km, 98.1° (Epoch: 24 November)

Event Time Altitude Azimuth Distance (km) Brightness Sun altitude
Rises 19:17:06 0° 182° (S) 3,517 6.4 -23.8°
Reaches altitude 10° 19:19:38 10° 188° (S) 2,569 5.7 -24.2°
Maximum altitude 19:25:11 48° 262° (W) 1,137 4.2 -25.0°
Drops below altitude 10° 19:30:34 10° 336° (NNW) 2,491 6.0 -25.8°
Sets 19:33:00 0° 342° (NNW) 3,401 6.7 -26.2°
